This is the latest recevied weather packets stored in our database for station/object YN9ZMM-13. If no packets are shown the sender has not sent any weather packets the latest 1 day(s).
| Time | Temp. | Humidity | Pressure | Rain* | Wind** | Luminosity | Snow |
|---|---|---|---|---|---|---|---|
| 1778085254 | 28.89° C | 53% | 1013 hPa | 0 mm | - | - | - |
| 1778084654 | 28.33° C | 53% | 1014 hPa | 0 mm | - | - | - |
| 1778083453 | 31.11° C | 57% | 1014 hPa | 0 mm | - | - | - |
| 1778081052 | 28.89° C | 57% | 1014 hPa | 0 mm | - | - | - |
| 1778078651 | 26.67° C | 57% | 1014 hPa | 0 mm | - | - | - |
| 1778077450 | 27.22° C | 68% | 1014 hPa | 0 mm | - | - | - |
| 1778075649 | 25.56° C | 68% | 1014 hPa | 0 mm | - | - | - |
| 1778074448 | 24.44° C | 68% | 1014 hPa | 0 mm | - | - | - |
| 1778073848 | 25° C | 80% | 1014 hPa | 0 mm | - | - | - |
| 1778071447 | 22.78° C | 80% | 1014 hPa | 0 mm | - | - | - |
| 1778070246 | 21.67° C | 80% | 1014 hPa | 0 mm | - | - | - |
| 1778069646 | 21.11° C | 80% | 1014 hPa | 0 mm | - | - | - |
| 1778067845 | 19.44° C | 80% | 1014 hPa | 0 mm | - | - | - |
| 1778063042 | 22.78° C | 84% | 1013 hPa | 0 mm | - | - | - |
| 1778061841 | 21.67° C | 84% | 1013 hPa | 0 mm | - | - | - |
| 1778060040 | 20° C | 84% | 1013 hPa | 0 mm | - | - | - |
| 1778058239 | 18.89° C | 84% | 1013 hPa | 0 mm | - | - | - |
| 1778057038 | 17.78° C | 84% | 1013 hPa | 0 mm | - | - | - |
| 1778056438 | 17.22° C | 84% | 1013 hPa | 0 mm | - | - | - |
| 1778054637 | 20.56° C | 85% | 1014 hPa | 0 mm | - | - | - |
| 1778052236 | 20.56° C | 83% | 1014 hPa | 0 mm | - | - | - |
| 1778051035 | 19.44° C | 83% | 1014 hPa | 0 mm | - | - | - |
| 1778050435 | 18.89° C | 83% | 1014 hPa | 0 mm | - | - | - |
| 1778049835 | 18.33° C | 83% | 1014 hPa | 0 mm | - | - | - |
| 1778048634 | 20.56° C | 81% | 1014 hPa | 0 mm | - | - | - |
* Rain latest hour (hover to see other rain measurements)
** Current wind speed in m/s (hover to see current wind gust speed)